Hourly Data Report for September 22, 2017

All times are specified in Local Standard Time (LST). Add 1 hour to adjust for Daylight Saving Time where and when it is observed.

QIKIQTARJUAQ A
NUNAVUT

67°32'48.000" N
64°01'54.000" W
5.50 m
2400577
YVM

Download Data

Hourly Data (September 2017)
Hourly Data Report for September 22, 2017
Temp Definition
°C
Dew Point Temp Definition
°C
Rel Hum Definition
%
Wind Dir Definition
10's deg

Wind Spd Definition
km/h
Visibility Definition
km
Stn Press Definition
kPa
Hmdx Definition


Wind Chill Definition


Weather Definition


TIME
00:00 Legend Double Dagger -0.9 -3.0 86 29 17 16.1 101.28   -6 LegendNANA
01:00 Legend Double Dagger -0.4 -3.8 78 33 18 16.1 101.26   -5 LegendNANA
02:00 Legend Double Dagger -0.4 -3.7 78 31 11 16.1 101.25   -4 LegendNANA
03:00 Legend Double Dagger -0.8 -4.0 79 34 18 16.1 101.24   -6 LegendNANA
04:00 Legend Double Dagger -1.4 -4.5 79 31 18 16.1 101.21   -7 LegendNANA
05:00 Legend Double Dagger -0.5 -4.3 76 34 13 16.1 101.22   -5 Snow
06:00 Legend Double Dagger -0.1 -3.8 76 31 18 16.1 101.19   -5 LegendNANA
07:00 Legend Double Dagger -0.1 -3.5 78 31 15 16.1 101.19   -5 LegendNANA
08:00 Legend Double Dagger 0.5 -4.0 72 32 21 16.1 101.11     LegendNANA
09:00 Legend Double Dagger -0.1 -2.8 82 33 24 14.5 101.11   -6 Snow
10:00 Legend Double Dagger -0.5 -0.8 98 35 24 0.2 101.10   -6 Heavy Snow
11:00 Legend Double Dagger 0.7 -0.8 90 36 32 16.1 101.09     LegendNANA
12:00 Legend Double Dagger 0.5 -0.4 94 35 32 4.8 101.10     Fog
13:00 Legend Double Dagger 0.6 -1.0 89 35 24 16.1 101.15     LegendNANA
14:00 Legend Double Dagger 0.6 -1.5 86 34 34 6.4 101.16     Snow
15:00 Legend Double Dagger 0.8 -1.3 86 35 24 9.7 101.18     Snow
16:00 Legend Double Dagger 0.3 -0.9 92 35 26 8.1 101.21     Rain,Snow
17:00 Legend Double Dagger 0.4 -0.8 92 35 28 4.8 101.21     Rain,Snow
18:00 Legend Double Dagger 0.5 -1.9 84 33 24 16.1 101.22     Rain
19:00 Legend Double Dagger 0.3 -2.0 84 33 22 16.1 101.21     Rain,Snow
20:00 Legend Double Dagger 0.6 -2.7 79 35 21 16.1 101.20     Rain
21:00 Legend Double Dagger 0.5 -2.9 78 34 13 16.1 101.17     LegendNANA
22:00 Legend Double Dagger 0.7 -3.4 74 31 17 16.1 101.14     LegendNANA
23:00 Legend Double Dagger 0.2 -3.8 75 31 17 16.1 101.12     LegendNANA

Notes on Data Quality.

Legend

  • E = Estimated
  • M = Missing
  • NA = Not Available
  • ‡ = Partner data that is not subject to review by the National Climate Archives
Date modified: